Tracking 30685 objects as of 18-Jun-2025
HD Live streaming from Space Station
objects crossing your sky now

DELTA 1 DEB

Track DELTA 1 DEB now!
10-day predictions


NORAD ID: 21341
Int'l Code: 1975-052BK
Perigee: 1,047.0 km
Apogee: 1,827.7 km
Inclination: 99.8 °
Period: 114.4 minutes
Semi major axis: 7808 km
RCS: 0.1589 m2 (medium)
Launch date: June 12, 1975
Source: United States (US)
Launch site: AIR FORCE WESTERN TEST RANGE (AFWTR)

Note: This is SATELLITE DEBRIS
Your satellite tracking list
Your tracking list is empty




NASA's NSSDC Master Catalog

Two Line Element Set (TLE):
1 21341U 75052BK  25168.26741282 -.00000063  00000-0 -11873-3 0  9998
2 21341  99.7681 269.7890 0499974  98.3137 294.4018 12.58241153563933
Source of the keplerian elements: AFSPC